Other Public Products
Issued by NWS Charleston, SC

Current Version | Previous Version | Graphics & Text | Print | Product List | Glossary On
Versions: 1 2 3 4 5 6 7 8 9 10 11 12 13 14 15 16 17 18 19 20 21 22 23 24 25 26 27 28 29 30 31 32 33 34 35 36 37 38 39 40 41 42 43 44 45 46 47 48 49 50
091
FPUS82 KCHS 182225
OPUCHS

TEST...KCHS/KSAV Gateway Observations...TEST
National Weather Service Charleston SC
600 PM EDT MON SEP 18 2017

NOTE: "fair" indicates few or no clouds below 12,000 feet with no
significant weather and/or obstructions to visibility.

SCZ050-WAZ558-NCZ071-TXZ119-213-PAZ071-DCZ001-FLZ074-172-MI076-
NYZ176-178-MAZ016-IL014-TNZ027-NJZ106-GAZ044-MD014-182300-

...Gateway Observations for Charleston International...

CITY           SKY/WX    TMP DP  RH WIND       PRES   REMARKS
Chas Airport   MOSUNNY   85  64  49 N12       29.94F
Seattle        PTSUNNY   62  46  55 S14       29.76F
Charlotte      MOSUNNY   84  64  50 N6        29.99F
Dallas DFW     MOSUNNY   93  62  35 CALM      29.88F HX  93
Dallas Love    MOSUNNY   94  62  34 S10       29.89F HX  94
Philladelphia  MOSUNNY   77  65  66 NE9       30.05F
Wash National  PTSUNNY   76  68  76 NE13      30.02F
Baltimore      MOSUNNY   73  69  87 NW6       30.03F
Miami          MOSUNNY   90  70  51 W8        29.87S HX  95
Detroit        CLOUDY    69  64  84 NE8       30.05F
Newark         PTSUNNY   73  66  78 NE8       30.08F
Laguardia      CLOUDY    74  67  78 NE9       30.08S
J F K          PTSUNNY   74  66  76 NE10      30.09F
Boston Logan   CLOUDY    66  64  93 NE7       30.16F FOG
Ft. Lauderdale MOSUNNY   90  73  57 NW10      29.85F HX  98
Chicago O`Hare PTSUNNY   73  53  49 NE10      30.01F
Chicago Midway PTSUNNY   71  57  61 E12       30.01F
Houston Bush   CLOUDY    81  73  76 S10       29.95R THUNDER
Houston Hobby  TSTM      83  76  79 CALM      29.92F HX  91
Nashville      PTSUNNY   86  63  45 NE7       29.99F
Atlanta        MOSUNNY   84  57  39 NW10      30.01S

$$

GAZ044-118-TXZ119-213-NCZ071-DCZ001-MDZ014-506-PAZ021-071-NJZ106-
NYZ176-178-MAZ106-OHZ011-021-055-MIZ076-KYZ091-ILZ014-INZ047-
MNZ060-ONZ431-182300-

...Gateway Observations for Savannah International...

CITY           SKY/WX    TMP DP  RH WIND       PRES   REMARKS
Savannah Arpt  MOSUNNY   88  65  46 N7        29.95F HX  90
Atlanta        MOSUNNY   84  57  39 NW10      30.01S
Charlotte      MOSUNNY   84  64  50 N6        29.99F
Dallas DFW     MOSUNNY   93  62  35 CALM      29.88F HX  93
Houston Bush   CLOUDY    81  73  76 S10       29.95R THUNDER
Wash National  PTSUNNY   76  68  76 NE13      30.02F
Wash Dulles    PTSUNNY   75  67  76 NE10      30.04S
Baltimore      MOSUNNY   73  69  87 NW6       30.03F
Philadelphia   MOSUNNY   77  65  66 NE9       30.05F
Newark         PTSUNNY   73  66  78 NE8       30.08F
Laguardia      CLOUDY    74  67  78 NE9       30.08S
J F K          PTSUNNY   74  66  76 NE10      30.09F
Boston         CLOUDY    66  64  93 NE7       30.16F FOG
Pittsburg      CLOUDY    81  61  50 CALM      30.04F
Akron          PTSUNNY   82  59  45 S5        30.04F
Cleveland      PTSUNNY   79  63  57 N10       30.05S
Cincinnati     CLOUDY    78  70  76 NW8       30.01S
Columbus       CLOUDY    78  64  62 W3        30.01S
Detroit        CLOUDY    69  64  84 NE8       30.05F
Chicago O`Hare PTSUNNY   73  53  49 NE10      30.01F
Minneapolis    CLOUDY    57  54  89 E13       29.98F
Indianapolis   PTSUNNY   83  68  60 CALM      29.97F
Toronto Canada PTSUNNY   77  64  65 SE8       30.02S

$$




USA.gov is the U.S. government's official web portal to all federal, state and local government web resources and services.